Time,TemperatureF,DewpointF,PressureIn,WindDirection,WindDirectionDegrees,WindSpeedMPH,WindSpeedGustMPH,Humidity,HourlyPrecipIn,Conditions,Clouds,dailyrainin,SoftwareType,DateUTC
2013-04-25 00:00:00,74.9,65.7,30.15,SE,125,7.0,11.0,73,0.00,,---,0.00,VWS V14.01,2013-04-25 04:00:00,
2013-04-25 00:01:00,74.9,65.7,30.15,ESE,113,6.0,9.0,73,0.00,,---,0.00,VWS V14.01,2013-04-25 04:01:00,
2013-04-25 00:05:00,75.0,66.2,30.15,ESE,106,4.0,12.0,74,0.00,,---,0.00,VWS V14.01,2013-04-25 04:05:00,
2013-04-25 00:06:00,75.0,66.2,30.15,ESE,114,5.0,9.0,74,0.00,,---,0.00,VWS V14.01,2013-04-25 04:06:00,
2013-04-25 00:10:00,74.9,65.7,30.15,ESE,114,7.0,11.0,73,0.00,,---,0.00,VWS V14.01,2013-04-25 04:10:00,
2013-04-25 00:11:00,75.0,66.2,30.15,ESE,103,6.0,7.0,74,0.00,,---,0.00,VWS V14.01,2013-04-25 04:11:00,
2013-04-25 00:15:00,74.9,65.7,30.15,ESE,105,6.0,10.0,73,0.00,,---,0.00,VWS V14.01,2013-04-25 04:15:00,
2013-04-25 00:16:00,74.9,66.1,30.15,SE,125,6.0,7.0,74,0.00,,---,0.00,VWS V14.01,2013-04-25 04:16:00,
2013-04-25 00:20:00,75.0,66.6,30.15,SE,129,10.0,10.0,75,0.00,,---,0.00,VWS V14.01,2013-04-25 04:20:00,
2013-04-25 00:21:00,74.9,66.1,30.15,ESE,115,4.0,10.0,74,0.00,,---,0.00,VWS V14.01,2013-04-25 04:21:00,
2013-04-25 00:25:00,74.8,66.0,30.15,ESE,121,11.0,11.0,74,0.00,,---,0.00,VWS V14.01,2013-04-25 04:25:00,
2013-04-25 00:26:00,74.8,65.2,30.15,SE,134,7.0,12.0,72,0.00,,---,0.00,VWS V14.01,2013-04-25 04:26:00,
2013-04-25 00:30:00,74.9,65.3,30.14,ESE,120,9.0,13.0,72,0.00,,---,0.00,VWS V14.01,2013-04-25 04:30:00,
2013-04-25 00:31:00,74.9,65.3,30.14,SE,142,8.0,10.0,72,0.00,,---,0.00,VWS V14.01,2013-04-25 04:31:00,
2013-04-25 00:35:00,74.9,65.7,30.14,SE,135,6.0,10.0,73,0.00,,---,0.00,VWS V14.01,2013-04-25 04:35:00,
2013-04-25 00:36:00,74.9,66.1,30.14,SE,132,9.0,9.0,74,0.00,,---,0.00,VWS V14.01,2013-04-25 04:36:00,
2013-04-25 00:40:00,75.0,66.2,30.14,ESE,110,10.0,11.0,74,0.00,,---,0.00,VWS V14.01,2013-04-25 04:40:00,
2013-04-25 00:41:00,74.9,66.1,30.14,SE,125,5.0,10.0,74,0.00,,---,0.00,VWS V14.01,2013-04-25 04:41:00,
2013-04-25 00:45:00,74.9,66.1,30.14,ESE,123,11.0,11.0,74,0.00,,---,0.00,VWS V14.01,2013-04-25 04:45:00,
2013-04-25 00:46:00,74.9,65.7,30.14,East,95,6.0,12.0,73,0.00,,---,0.00,VWS V14.01,2013-04-25 04:46:00,
2013-04-25 00:50:00,74.9,66.1,30.14,SE,133,4.0,12.0,74,0.00,,---,0.00,VWS V14.01,2013-04-25 04:50:00,
2013-04-25 00:51:00,74.9,66.4,30.14,ESE,119,5.0,7.0,75,0.00,,---,0.00,VWS V14.01,2013-04-25 04:51:00,
2013-04-25 00:55:00,74.9,66.4,30.14,ESE,116,7.0,11.0,75,0.00,,---,0.00,VWS V14.01,2013-04-25 04:55:00,
2013-04-25 00:56:00,74.9,66.1,30.14,ESE,121,5.0,10.0,74,0.00,,---,0.00,VWS V14.01,2013-04-25 04:56:00,
2013-04-25 01:00:00,74.8,66.3,30.13,SE,126,5.0,10.0,75,0.00,,---,0.00,VWS V14.01,2013-04-25 05:00:00,
2013-04-25 01:01:00,74.8,66.3,30.13,ESE,118,6.0,7.0,75,0.00,,---,0.00,VWS V14.01,2013-04-25 05:01:00,
2013-04-25 01:05:00,74.8,66.3,30.13,ESE,105,7.0,12.0,75,0.00,,---,0.00,VWS V14.01,2013-04-25 05:05:00,
2013-04-25 01:06:00,74.8,66.3,30.13,ESE,119,6.0,8.0,75,0.00,,---,0.00,VWS V14.01,2013-04-25 05:06:00,
2013-04-25 01:10:00,74.8,66.3,30.13,ESE,118,9.0,10.0,75,0.00,,---,0.00,VWS V14.01,2013-04-25 05:10:00,
2013-04-25 01:11:00,74.8,66.3,30.13,ESE,118,10.0,13.0,75,0.00,,---,0.00,VWS V14.01,2013-04-25 05:11:00,
2013-04-25 01:15:00,74.8,66.3,30.12,ESE,122,11.0,13.0,75,0.00,,---,0.00,VWS V14.01,2013-04-25 05:15:00,
2013-04-25 01:16:00,74.8,66.3,30.12,ESE,119,10.0,12.0,75,0.00,,---,0.00,VWS V14.01,2013-04-25 05:16:00,
2013-04-25 01:20:00,74.8,66.3,30.12,SE,131,5.0,12.0,75,0.00,,---,0.00,VWS V14.01,2013-04-25 05:20:00,
2013-04-25 01:21:00,74.8,66.7,30.12,ESE,119,6.0,7.0,76,0.00,,---,0.00,VWS V14.01,2013-04-25 05:21:00,
2013-04-25 01:25:00,74.6,66.2,30.12,SE,143,5.0,10.0,75,0.00,,---,0.00,VWS V14.01,2013-04-25 05:25:00,
2013-04-25 01:26:00,74.7,66.3,30.12,SE,135,4.0,6.0,75,0.00,,---,0.00,VWS V14.01,2013-04-25 05:26:00,
2013-04-25 01:30:00,74.7,66.3,30.12,ESE,111,6.0,10.0,75,0.00,,---,0.00,VWS V14.01,2013-04-25 05:30:00,
2013-04-25 01:31:00,74.7,66.3,30.12,SE,131,5.0,10.0,75,0.00,,---,0.00,VWS V14.01,2013-04-25 05:31:00,
2013-04-25 01:35:00,74.6,65.8,30.12,ESE,118,6.0,10.0,74,0.00,,---,0.00,VWS V14.01,2013-04-25 05:35:00,
2013-04-25 01:36:00,74.7,66.3,30.12,ESE,122,6.0,8.0,75,0.00,,---,0.00,VWS V14.01,2013-04-25 05:36:00,
2013-04-25 01:40:00,74.7,66.3,30.12,ESE,121,4.0,10.0,75,0.00,,---,0.00,VWS V14.01,2013-04-25 05:40:00,
2013-04-25 01:41:00,74.6,66.2,30.12,SE,127,6.0,6.0,75,0.00,,---,0.00,VWS V14.01,2013-04-25 05:41:00,
2013-04-25 01:45:00,74.7,66.3,30.12,SE,129,5.0,7.0,75,0.00,,---,0.00,VWS V14.01,2013-04-25 05:45:00,
2013-04-25 01:46:00,74.7,66.3,30.12,SE,132,7.0,7.0,75,0.00,,---,0.00,VWS V14.01,2013-04-25 05:46:00,
2013-04-25 01:50:00,74.7,66.3,30.12,ESE,110,4.0,9.0,75,0.00,,---,0.00,VWS V14.01,2013-04-25 05:50:00,
2013-04-25 01:51:00,74.7,66.3,30.12,ESE,117,6.0,9.0,75,0.00,,---,0.00,VWS V14.01,2013-04-25 05:51:00,
2013-04-25 01:55:00,74.6,65.8,30.12,ESE,114,5.0,9.0,74,0.00,,---,0.00,VWS V14.01,2013-04-25 05:55:00,
2013-04-25 01:56:00,74.6,65.8,30.12,ESE,113,9.0,9.0,74,0.00,,---,0.00,VWS V14.01,2013-04-25 05:56:00,
2013-04-25 02:00:00,74.7,66.3,30.12,ESE,119,5.0,9.0,75,0.00,,---,0.00,VWS V14.01,2013-04-25 06:00:00,
2013-04-25 02:01:00,74.7,66.3,30.12,SE,133,6.0,6.0,75,0.00,,---,0.00,VWS V14.01,2013-04-25 06:01:00,
2013-04-25 02:05:00,74.7,66.6,30.12,SE,126,7.0,9.0,76,0.00,,---,0.00,VWS V14.01,2013-04-25 06:05:00,
2013-04-25 02:06:00,74.7,66.3,30.12,ESE,121,5.0,7.0,75,0.00,,---,0.00,VWS V14.01,2013-04-25 06:06:00,
2013-04-25 02:10:00,74.6,66.2,30.12,SE,134,7.0,10.0,75,0.00,,---,0.00,VWS V14.01,2013-04-25 06:10:00,
2013-04-25 02:11:00,74.6,66.2,30.12,SE,124,6.0,10.0,75,0.00,,---,0.00,VWS V14.01,2013-04-25 06:11:00,
2013-04-25 02:15:00,74.7,66.6,30.11,SE,129,7.0,10.0,76,0.00,,---,0.00,VWS V14.01,2013-04-25 06:15:00,
2013-04-25 02:16:00,74.7,66.6,30.11,SE,134,5.0,7.0,76,0.00,,---,0.00,VWS V14.01,2013-04-25 06:16:00,
2013-04-25 02:20:00,74.7,66.6,30.11,ESE,121,5.0,9.0,76,0.00,,---,0.00,VWS V14.01,2013-04-25 06:20:00,
2013-04-25 02:21:00,74.7,67.0,30.11,ESE,116,5.0,6.0,77,0.00,,---,0.00,VWS V14.01,2013-04-25 06:21:00,
2013-04-25 02:25:00,74.6,66.9,30.11,SE,131,6.0,9.0,77,0.00,,---,0.00,VWS V14.01,2013-04-25 06:25:00,
2013-04-25 02:26:00,74.6,66.9,30.11,SE,126,4.0,9.0,77,0.00,,---,0.00,VWS V14.01,2013-04-25 06:26:00,
2013-04-25 02:30:00,74.5,66.8,30.10,ESE,117,7.0,10.0,77,0.00,,---,0.00,VWS V14.01,2013-04-25 06:30:00,
2013-04-25 02:31:00,74.5,66.8,30.10,ESE,119,6.0,10.0,77,0.00,,---,0.00,VWS V14.01,2013-04-25 06:31:00,
2013-04-25 02:35:00,74.4,66.3,30.10,SE,125,6.0,10.0,76,0.00,,---,0.00,VWS V14.01,2013-04-25 06:35:00,
2013-04-25 02:36:00,74.4,66.7,30.10,SE,143,3.0,11.0,77,0.00,,---,0.00,VWS V14.01,2013-04-25 06:36:00,
2013-04-25 02:40:00,74.4,66.7,30.10,SE,142,5.0,11.0,77,0.00,,---,0.00,VWS V14.01,2013-04-25 06:40:00,
2013-04-25 02:41:00,74.4,66.7,30.10,SSE,152,3.0,9.0,77,0.00,,---,0.00,VWS V14.01,2013-04-25 06:41:00,
2013-04-25 02:45:00,74.5,67.2,30.10,SE,137,2.0,9.0,78,0.00,,---,0.00,VWS V14.01,2013-04-25 06:45:00,
2013-04-25 02:46:00,74.5,67.2,30.10,SE,141,3.0,5.0,78,0.00,,---,0.00,VWS V14.01,2013-04-25 06:46:00,
2013-04-25 02:50:00,74.6,67.3,30.10,SE,142,2.0,6.0,78,0.00,,---,0.00,VWS V14.01,2013-04-25 06:50:00,
2013-04-25 02:51:00,74.6,67.3,30.10,SE,143,5.0,7.0,78,0.00,,---,0.00,VWS V14.01,2013-04-25 06:51:00,
2013-04-25 02:55:00,74.4,67.1,30.10,SE,141,3.0,8.0,78,0.00,,---,0.00,VWS V14.01,2013-04-25 06:55:00,
2013-04-25 02:56:00,74.4,67.1,30.10,SE,127,3.0,5.0,78,0.00,,---,0.00,VWS V14.01,2013-04-25 06:56:00,
2013-04-25 03:00:00,74.3,67.0,30.10,SE,135,4.0,7.0,78,0.00,,---,0.00,VWS V14.01,2013-04-25 07:00:00,
2013-04-25 03:01:00,74.3,67.0,30.10,SE,141,2.0,6.0,78,0.00,,---,0.00,VWS V14.01,2013-04-25 07:01:00,
2013-04-25 03:05:00,74.4,67.5,30.10,SSE,154,4.0,6.0,79,0.00,,---,0.00,VWS V14.01,2013-04-25 07:05:00,
2013-04-25 03:06:00,74.3,67.4,30.10,SE,124,4.0,6.0,79,0.00,,---,0.00,VWS V14.01,2013-04-25 07:06:00,
2013-04-25 03:10:00,74.3,67.4,30.10,SSE,151,4.0,6.0,79,0.00,,---,0.00,VWS V14.01,2013-04-25 07:10:00,
2013-04-25 03:11:00,74.3,67.4,30.10,ESE,112,6.0,6.0,79,0.00,,---,0.00,VWS V14.01,2013-04-25 07:11:00,
2013-04-25 03:15:00,74.3,67.7,30.10,SE,138,2.0,7.0,80,0.00,,---,0.00,VWS V14.01,2013-04-25 07:15:00,
2013-04-25 03:16:00,74.3,67.7,30.10,SE,145,3.0,4.0,80,0.00,,---,0.00,VWS V14.01,2013-04-25 07:16:00,
2013-04-25 03:20:00,74.2,67.6,30.10,SE,141,4.0,6.0,80,0.00,,---,0.00,VWS V14.01,2013-04-25 07:20:00,
2013-04-25 03:21:00,74.2,67.6,30.10,SE,141,2.0,4.0,80,0.00,,---,0.00,VWS V14.01,2013-04-25 07:21:00,
2013-04-25 03:25:00,74.2,67.6,30.10,SE,140,1.0,6.0,80,0.00,,---,0.00,VWS V14.01,2013-04-25 07:25:00,
2013-04-25 03:26:00,74.2,67.6,30.10,SE,140,2.0,2.0,80,0.00,,---,0.00,VWS V14.01,2013-04-25 07:26:00,
2013-04-25 03:30:00,74.1,67.5,30.11,SE,142,3.0,5.0,80,0.00,,---,0.00,VWS V14.01,2013-04-25 07:30:00,
2013-04-25 03:31:00,74.1,67.5,30.11,ESE,121,3.0,5.0,80,0.00,,---,0.00,VWS V14.01,2013-04-25 07:31:00,
2013-04-25 03:35:00,74.2,67.6,30.11,SE,132,3.0,6.0,80,0.00,,---,0.00,VWS V14.01,2013-04-25 07:35:00,
2013-04-25 03:36:00,74.2,67.6,30.11,SSE,153,4.0,5.0,80,0.00,,---,0.00,VWS V14.01,2013-04-25 07:36:00,
2013-04-25 03:40:00,74.2,67.6,30.11,SE,129,3.0,5.0,80,0.00,,---,0.00,VWS V14.01,2013-04-25 07:40:00,
2013-04-25 03:41:00,74.2,67.6,30.11,ESE,121,4.0,5.0,80,0.00,,---,0.00,VWS V14.01,2013-04-25 07:41:00,
2013-04-25 03:45:00,74.2,67.6,30.11,SE,125,2.0,5.0,80,0.00,,---,0.00,VWS V14.01,2013-04-25 07:45:00,
2013-04-25 03:46:00,74.2,67.6,30.11,SE,125,2.0,2.0,80,0.00,,---,0.00,VWS V14.01,2013-04-25 07:46:00,
2013-04-25 03:50:00,74.1,67.5,30.11,SE,128,2.0,4.0,80,0.00,,---,0.00,VWS V14.01,2013-04-25 07:50:00,
2013-04-25 03:51:00,74.0,67.4,30.11,ESE,106,2.0,3.0,80,0.00,,---,0.00,VWS V14.01,2013-04-25 07:51:00,
2013-04-25 03:55:00,74.1,67.2,30.11,SE,135,2.0,9.0,79,0.00,,---,0.00,VWS V14.01,2013-04-25 07:55:00,
2013-04-25 03:56:00,74.1,67.2,30.11,SE,128,3.0,4.0,79,0.00,,---,0.00,VWS V14.01,2013-04-25 07:56:00,
2013-04-25 04:00:00,74.1,66.8,30.11,SSE,164,4.0,7.0,78,0.00,,---,0.00,VWS V14.01,2013-04-25 08:00:00,
2013-04-25 04:01:00,74.1,66.8,30.11,SE,129,1.0,4.0,78,0.00,,---,0.00,VWS V14.01,2013-04-25 08:01:00,
2013-04-25 04:05:00,74.1,66.8,30.11,SE,146,3.0,5.0,78,0.00,,---,0.00,VWS V14.01,2013-04-25 08:05:00,
2013-04-25 04:06:00,74.0,66.3,30.11,SSE,154,2.0,3.0,77,0.00,,---,0.00,VWS V14.01,2013-04-25 08:06:00,
2013-04-25 04:10:00,74.0,66.3,30.11,SE,129,2.0,3.0,77,0.00,,---,0.00,VWS V14.01,2013-04-25 08:10:00,
2013-04-25 04:11:00,74.0,66.7,30.11,SE,129,1.0,2.0,78,0.00,,---,0.00,VWS V14.01,2013-04-25 08:11:00,
2013-04-25 04:15:00,73.9,66.2,30.12,SE,137,1.0,3.0,77,0.00,,---,0.00,VWS V14.01,2013-04-25 08:15:00,
2013-04-25 04:16:00,73.9,66.2,30.12,SSE,150,2.0,3.0,77,0.00,,---,0.00,VWS V14.01,2013-04-25 08:16:00,
2013-04-25 04:20:00,73.9,66.2,30.12,SE,143,1.0,3.0,77,0.00,,---,0.00,VWS V14.01,2013-04-25 08:20:00,
2013-04-25 04:21:00,73.9,66.2,30.12,SE,137,1.0,2.0,77,0.00,,---,0.00,VWS V14.01,2013-04-25 08:21:00,
2013-04-25 04:25:00,73.9,66.2,30.12,SSE,154,2.0,4.0,77,0.00,,---,0.00,VWS V14.01,2013-04-25 08:25:00,
2013-04-25 04:26:00,73.8,66.2,30.12,SE,126,3.0,4.0,77,0.00,,---,0.00,VWS V14.01,2013-04-25 08:26:00,
2013-04-25 04:30:00,73.8,66.2,30.12,SE,135,4.0,5.0,77,0.00,,---,0.00,VWS V14.01,2013-04-25 08:30:00,
2013-04-25 04:31:00,73.8,66.2,30.12,SSE,158,2.0,4.0,77,0.00,,---,0.00,VWS V14.01,2013-04-25 08:31:00,
2013-04-25 04:35:00,73.8,66.5,30.12,SSE,156,1.0,4.0,78,0.00,,---,0.00,VWS V14.01,2013-04-25 08:35:00,
2013-04-25 04:36:00,73.8,66.5,30.12,SSE,156,2.0,3.0,78,0.00,,---,0.00,VWS V14.01,2013-04-25 08:36:00,
2013-04-25 04:40:00,73.8,66.9,30.12,SSE,150,3.0,4.0,79,0.00,,---,0.00,VWS V14.01,2013-04-25 08:40:00,
2013-04-25 04:41:00,73.7,66.4,30.12,SSE,150,3.0,5.0,78,0.00,,---,0.00,VWS V14.01,2013-04-25 08:41:00,
2013-04-25 04:45:00,73.7,66.8,30.12,SE,145,2.0,5.0,79,0.00,,---,0.00,VWS V14.01,2013-04-25 08:45:00,
2013-04-25 04:46:00,73.8,66.9,30.12,SE,144,2.0,3.0,79,0.00,,---,0.00,VWS V14.01,2013-04-25 08:46:00,
2013-04-25 04:50:00,73.8,66.9,30.12,SE,131,0.0,3.0,79,0.00,,---,0.00,VWS V14.01,2013-04-25 08:50:00,
2013-04-25 04:51:00,73.8,66.9,30.12,SE,131,0.0,0.0,79,0.00,,---,0.00,VWS V14.01,2013-04-25 08:51:00,
2013-04-25 04:55:00,73.6,66.7,30.12,SE,142,1.0,3.0,79,0.00,,---,0.00,VWS V14.01,2013-04-25 08:55:00,
2013-04-25 04:56:00,73.6,66.7,30.12,SSE,159,2.0,3.0,79,0.00,,---,0.00,VWS V14.01,2013-04-25 08:56:00,
2013-04-25 05:00:00,73.6,66.3,30.12,ESE,121,1.0,4.0,78,0.00,,---,0.00,VWS V14.01,2013-04-25 09:00:00,
2013-04-25 05:01:00,73.6,66.3,30.12,ESE,121,1.0,3.0,78,0.00,,---,0.00,VWS V14.01,2013-04-25 09:01:00,
2013-04-25 05:05:00,73.6,66.3,30.12,SE,127,1.0,3.0,78,0.00,,---,0.00,VWS V14.01,2013-04-25 09:05:00,
2013-04-25 05:06:00,73.5,66.2,30.12,SE,141,2.0,3.0,78,0.00,,---,0.00,VWS V14.01,2013-04-25 09:06:00,
2013-04-25 05:10:00,73.4,65.8,30.12,WSW,245,0.0,4.0,77,0.00,,---,0.00,VWS V14.01,2013-04-25 09:10:00,
2013-04-25 05:11:00,73.3,65.7,30.12,West,279,3.0,4.0,77,0.00,,---,0.00,VWS V14.01,2013-04-25 09:11:00,
2013-04-25 05:15:00,72.2,65.3,30.13,WNW,299,2.0,6.0,79,0.00,,---,0.00,VWS V14.01,2013-04-25 09:15:00,
2013-04-25 05:16:00,72.0,65.1,30.13,WNW,299,1.0,3.0,79,0.00,,---,0.00,VWS V14.01,2013-04-25 09:16:00,
2013-04-25 05:20:00,71.0,64.9,30.13,WNW,298,1.0,3.0,81,0.00,,---,0.00,VWS V14.01,2013-04-25 09:20:00,
2013-04-25 05:21:00,70.8,64.7,30.13,WNW,299,0.0,1.0,81,0.00,,---,0.00,VWS V14.01,2013-04-25 09:21:00,
2013-04-25 05:25:00,70.1,64.4,30.13,WNW,299,0.0,2.0,82,0.00,,---,0.00,VWS V14.01,2013-04-25 09:25:00,
2013-04-25 05:26:00,70.0,64.6,30.13,WNW,299,2.0,3.0,83,0.00,,---,0.00,VWS V14.01,2013-04-25 09:26:00,
2013-04-25 05:30:00,69.4,64.4,30.14,WNW,298,0.0,3.0,84,0.00,,---,0.00,VWS V14.01,2013-04-25 09:30:00,
2013-04-25 05:31:00,69.3,64.3,30.14,WNW,299,0.0,0.0,84,0.00,,---,0.00,VWS V14.01,2013-04-25 09:31:00,
2013-04-25 05:35:00,68.9,64.2,30.14,WNW,299,2.0,3.0,85,0.00,,---,0.00,VWS V14.01,2013-04-25 09:35:00,
2013-04-25 05:36:00,68.8,64.1,30.14,WNW,299,1.0,2.0,85,0.00,,---,0.00,VWS V14.01,2013-04-25 09:36:00,
2013-04-25 05:40:00,68.5,64.2,30.14,WNW,299,1.0,3.0,86,0.00,,---,0.00,VWS V14.01,2013-04-25 09:40:00,
2013-04-25 05:41:00,68.4,64.1,30.14,WNW,299,1.0,2.0,86,0.00,,---,0.00,VWS V14.01,2013-04-25 09:41:00,
2013-04-25 05:45:00,68.2,64.2,30.14,WNW,298,2.0,3.0,87,0.00,,---,0.00,VWS V14.01,2013-04-25 09:45:00,
2013-04-25 05:46:00,68.1,64.1,30.14,WNW,299,2.0,2.0,87,0.00,,---,0.00,VWS V14.01,2013-04-25 09:46:00,
2013-04-25 05:50:00,67.9,64.2,30.14,WNW,298,0.0,3.0,88,0.00,,---,0.00,VWS V14.01,2013-04-25 09:50:00,
2013-04-25 05:51:00,67.9,64.2,30.14,WNW,299,0.0,1.0,88,0.00,,---,0.00,VWS V14.01,2013-04-25 09:51:00,
2013-04-25 05:55:00,67.7,64.0,30.14,WNW,299,0.0,2.0,88,0.00,,---,0.00,VWS V14.01,2013-04-25 09:55:00,
2013-04-25 05:56:00,67.7,64.0,30.14,WNW,299,0.0,0.0,88,0.00,,---,0.00,VWS V14.01,2013-04-25 09:56:00,
2013-04-25 06:00:00,67.6,63.9,30.14,WNW,299,0.0,1.0,88,0.00,,---,0.00,VWS V14.01,2013-04-25 10:00:00,
2013-04-25 06:01:00,67.5,63.8,30.14,WNW,299,1.0,1.0,88,0.00,,---,0.00,VWS V14.01,2013-04-25 10:01:00,
2013-04-25 06:05:00,67.4,64.1,30.14,WNW,299,1.0,2.0,89,0.00,,---,0.00,VWS V14.01,2013-04-25 10:05:00,
2013-04-25 06:06:00,67.4,64.1,30.14,WNW,299,1.0,1.0,89,0.00,,---,0.00,VWS V14.01,2013-04-25 10:06:00,
2013-04-25 06:10:00,67.2,63.8,30.14,WNW,299,0.0,2.0,89,0.00,,---,0.00,VWS V14.01,2013-04-25 10:10:00,
2013-04-25 06:11:00,67.2,63.8,30.14,WNW,299,0.0,1.0,89,0.00,,---,0.00,VWS V14.01,2013-04-25 10:11:00,
2013-04-25 06:15:00,67.1,63.8,30.14,WNW,299,0.0,2.0,89,0.00,,---,0.00,VWS V14.01,2013-04-25 10:15:00,
2013-04-25 06:16:00,67.1,63.8,30.14,WNW,299,0.0,1.0,89,0.00,,---,0.00,VWS V14.01,2013-04-25 10:16:00,
2013-04-25 06:20:00,67.0,63.7,30.14,WNW,299,0.0,2.0,89,0.00,,---,0.00,VWS V14.01,2013-04-25 10:20:00,
2013-04-25 06:21:00,67.0,63.7,30.14,WNW,299,1.0,3.0,89,0.00,,---,0.00,VWS V14.01,2013-04-25 10:21:00,
2013-04-25 06:25:00,67.0,64.0,30.14,WNW,299,2.0,3.0,90,0.00,,---,0.00,VWS V14.01,2013-04-25 10:25:00,
2013-04-25 06:26:00,67.0,64.0,30.14,WNW,299,0.0,2.0,90,0.00,,---,0.00,VWS V14.01,2013-04-25 10:26:00,
2013-04-25 06:30:00,66.9,63.9,30.15,WNW,299,0.0,2.0,90,0.00,,---,0.00,VWS V14.01,2013-04-25 10:30:00,
2013-04-25 06:31:00,66.9,63.9,30.15,WNW,298,1.0,1.0,90,0.00,,---,0.00,VWS V14.01,2013-04-25 10:31:00,
2013-04-25 06:35:00,66.9,63.9,30.15,WNW,298,0.0,3.0,90,0.00,,---,0.00,VWS V14.01,2013-04-25 10:35:00,
2013-04-25 06:36:00,66.8,63.8,30.15,WNW,298,0.0,0.0,90,0.00,,---,0.00,VWS V14.01,2013-04-25 10:36:00,
2013-04-25 06:40:00,66.8,63.8,30.15,WNW,299,0.0,1.0,90,0.00,,---,0.00,VWS V14.01,2013-04-25 10:40:00,
2013-04-25 06:41:00,66.8,63.8,30.15,WNW,299,0.0,1.0,90,0.00,,---,0.00,VWS V14.01,2013-04-25 10:41:00,
2013-04-25 06:45:00,66.8,63.8,30.15,WNW,299,0.0,2.0,90,0.00,,---,0.00,VWS V14.01,2013-04-25 10:45:00,
2013-04-25 06:46:00,66.8,63.8,30.15,WNW,299,0.0,0.0,90,0.00,,---,0.00,VWS V14.01,2013-04-25 10:46:00,
2013-04-25 06:50:00,66.7,63.7,30.15,WNW,299,0.0,1.0,90,0.00,,---,0.00,VWS V14.01,2013-04-25 10:50:00,
2013-04-25 06:51:00,66.8,63.8,30.15,WNW,299,0.0,1.0,90,0.00,,---,0.00,VWS V14.01,2013-04-25 10:51:00,
2013-04-25 06:55:00,66.7,63.7,30.15,WNW,299,0.0,1.0,90,0.00,,---,0.00,VWS V14.01,2013-04-25 10:55:00,
2013-04-25 06:56:00,66.7,63.7,30.15,WNW,299,0.0,0.0,90,0.00,,---,0.00,VWS V14.01,2013-04-25 10:56:00,
2013-04-25 07:00:00,66.7,63.7,30.16,WNW,299,0.0,1.0,90,0.00,,---,0.00,VWS V14.01,2013-04-25 11:00:00,
2013-04-25 07:01:00,66.7,64.0,30.16,WNW,298,0.0,0.0,91,0.00,,---,0.00,VWS V14.01,2013-04-25 11:01:00,
2013-04-25 07:05:00,66.7,64.0,30.16,WNW,299,0.0,1.0,91,0.00,,---,0.00,VWS V14.01,2013-04-25 11:05:00,
2013-04-25 07:06:00,66.7,64.0,30.16,WNW,299,0.0,0.0,91,0.00,,---,0.00,VWS V14.01,2013-04-25 11:06:00,
2013-04-25 07:10:00,66.8,64.1,30.16,WNW,299,0.0,0.0,91,0.00,,---,0.00,VWS V14.01,2013-04-25 11:10:00,
2013-04-25 07:11:00,66.8,64.1,30.16,WNW,299,0.0,0.0,91,0.00,,---,0.00,VWS V14.01,2013-04-25 11:11:00,
2013-04-25 07:15:00,66.9,64.2,30.16,WNW,299,0.0,1.0,91,0.00,,---,0.00,VWS V14.01,2013-04-25 11:15:00,
2013-04-25 07:16:00,66.9,64.2,30.16,WNW,299,0.0,1.0,91,0.00,,---,0.00,VWS V14.01,2013-04-25 11:16:00,
2013-04-25 07:20:00,67.1,64.4,30.16,WNW,299,0.0,1.0,91,0.00,,---,0.00,VWS V14.01,2013-04-25 11:20:00,
2013-04-25 07:21:00,67.1,64.4,30.16,WNW,299,0.0,0.0,91,0.00,,---,0.00,VWS V14.01,2013-04-25 11:21:00,
2013-04-25 07:25:00,67.2,64.5,30.16,WNW,299,0.0,0.0,91,0.00,,---,0.00,VWS V14.01,2013-04-25 11:25:00,
2013-04-25 07:26:00,67.2,64.5,30.16,WNW,299,0.0,0.0,91,0.00,,---,0.00,VWS V14.01,2013-04-25 11:26:00,
2013-04-25 07:30:00,67.4,64.7,30.17,WNW,299,0.0,0.0,91,0.00,,---,0.00,VWS V14.01,2013-04-25 11:30:00,
2013-04-25 07:31:00,67.5,64.8,30.17,WNW,299,0.0,0.0,91,0.00,,---,0.00,VWS V14.01,2013-04-25 11:31:00,
2013-04-25 07:35:00,67.7,65.3,30.17,WNW,299,0.0,0.0,92,0.00,,---,0.00,VWS V14.01,2013-04-25 11:35:00,
2013-04-25 07:36:00,67.8,65.4,30.17,WNW,299,0.0,0.0,92,0.00,,---,0.00,VWS V14.01,2013-04-25 11:36:00,
2013-04-25 07:40:00,68.1,65.4,30.17,WNW,299,0.0,0.0,91,0.00,,---,0.00,VWS V14.01,2013-04-25 11:40:00,
2013-04-25 07:41:00,68.1,65.4,30.17,WNW,299,0.0,0.0,91,0.00,,---,0.00,VWS V14.01,2013-04-25 11:41:00,
2013-04-25 07:45:00,68.5,65.8,30.17,WNW,299,0.0,0.0,91,0.00,,---,0.00,VWS V14.01,2013-04-25 11:45:00,
2013-04-25 07:46:00,68.6,65.9,30.17,WNW,299,0.0,0.0,91,0.00,,---,0.00,VWS V14.01,2013-04-25 11:46:00,
2013-04-25 07:50:00,68.9,66.2,30.17,WNW,299,0.0,1.0,91,0.00,,---,0.00,VWS V14.01,2013-04-25 11:50:00,
2013-04-25 07:51:00,68.9,66.2,30.17,WNW,299,0.0,0.0,91,0.00,,---,0.00,VWS V14.01,2013-04-25 11:51:00,
2013-04-25 07:55:00,69.2,66.5,30.17,WNW,298,0.0,0.0,91,0.00,,---,0.00,VWS V14.01,2013-04-25 11:55:00,
2013-04-25 07:56:00,69.2,66.5,30.17,WNW,299,0.0,0.0,91,0.00,,---,0.00,VWS V14.01,2013-04-25 11:56:00,
2013-04-25 08:00:00,69.4,66.3,30.18,WNW,299,1.0,2.0,90,0.00,,---,0.00,VWS V14.01,2013-04-25 12:00:00,
2013-04-25 08:01:00,69.4,66.3,30.18,WNW,299,0.0,1.0,90,0.00,,---,0.00,VWS V14.01,2013-04-25 12:01:00,
2013-04-25 08:05:00,69.8,66.7,30.18,WNW,299,0.0,1.0,90,0.00,,---,0.00,VWS V14.01,2013-04-25 12:05:00,
2013-04-25 08:06:00,69.9,66.5,30.18,WNW,299,0.0,0.0,89,0.00,,---,0.00,VWS V14.01,2013-04-25 12:06:00,
2013-04-25 08:10:00,70.2,66.8,30.18,WNW,299,0.0,1.0,89,0.00,,---,0.00,VWS V14.01,2013-04-25 12:10:00,
2013-04-25 08:11:00,70.2,66.5,30.18,WNW,299,0.0,0.0,88,0.00,,---,0.00,VWS V14.01,2013-04-25 12:11:00,
2013-04-25 08:15:00,70.6,66.9,30.18,WNW,299,0.0,0.0,88,0.00,,---,0.00,VWS V14.01,2013-04-25 12:15:00,
2013-04-25 08:16:00,70.6,66.9,30.18,WNW,299,0.0,0.0,88,0.00,,---,0.00,VWS V14.01,2013-04-25 12:16:00,
2013-04-25 08:20:00,71.0,66.9,30.18,WNW,299,0.0,0.0,87,0.00,,---,0.00,VWS V14.01,2013-04-25 12:20:00,
2013-04-25 08:21:00,71.1,67.0,30.18,WNW,299,0.0,0.0,87,0.00,,---,0.00,VWS V14.01,2013-04-25 12:21:00,
2013-04-25 08:25:00,71.7,67.6,30.18,WNW,299,0.0,0.0,87,0.00,,---,0.00,VWS V14.01,2013-04-25 12:25:00,
2013-04-25 08:26:00,71.7,67.6,30.18,WNW,299,0.0,0.0,87,0.00,,---,0.00,VWS V14.01,2013-04-25 12:26:00,
2013-04-25 08:30:00,72.5,68.1,30.18,WNW,299,0.0,0.0,86,0.00,,---,0.00,VWS V14.01,2013-04-25 12:30:00,
2013-04-25 08:31:00,72.6,68.2,30.18,WNW,299,0.0,0.0,86,0.00,,---,0.00,VWS V14.01,2013-04-25 12:31:00,
2013-04-25 08:35:00,73.3,68.2,30.18,WNW,299,0.0,0.0,84,0.00,,---,0.00,VWS V14.01,2013-04-25 12:35:00,
2013-04-25 08:36:00,73.3,67.8,30.18,WNW,299,0.0,0.0,83,0.00,,---,0.00,VWS V14.01,2013-04-25 12:36:00,
2013-04-25 08:40:00,73.7,67.9,30.18,WNW,299,0.0,0.0,82,0.00,,---,0.00,VWS V14.01,2013-04-25 12:40:00,
2013-04-25 08:41:00,73.7,67.9,30.18,WNW,299,0.0,0.0,82,0.00,,---,0.00,VWS V14.01,2013-04-25 12:41:00,
2013-04-25 08:45:00,73.9,67.7,30.18,WNW,299,0.0,0.0,81,0.00,,---,0.00,VWS V14.01,2013-04-25 12:45:00,
2013-04-25 08:46:00,73.9,67.7,30.18,WNW,299,0.0,0.0,81,0.00,,---,0.00,VWS V14.01,2013-04-25 12:46:00,
2013-04-25 08:50:00,74.1,67.5,30.18,WNW,299,0.0,0.0,80,0.00,,---,0.00,VWS V14.01,2013-04-25 12:50:00,
2013-04-25 08:51:00,74.1,67.5,30.18,WNW,299,0.0,0.0,80,0.00,,---,0.00,VWS V14.01,2013-04-25 12:51:00,
2013-04-25 08:55:00,74.4,68.2,30.18,WNW,299,0.0,0.0,81,0.00,,---,0.00,VWS V14.01,2013-04-25 12:55:00,
2013-04-25 08:56:00,74.4,68.2,30.18,WNW,299,0.0,0.0,81,0.00,,---,0.00,VWS V14.01,2013-04-25 12:56:00,
2013-04-25 09:00:00,75.1,68.9,30.18,WNW,299,0.0,0.0,81,0.00,,---,0.00,VWS V14.01,2013-04-25 13:00:00,
2013-04-25 09:01:00,75.2,69.0,30.18,WNW,299,0.0,0.0,81,0.00,,---,0.00,VWS V14.01,2013-04-25 13:01:00,
2013-04-25 09:05:00,75.4,68.4,30.18,WNW,299,0.0,0.0,79,0.00,,---,0.00,VWS V14.01,2013-04-25 13:05:00,
2013-04-25 09:06:00,75.4,68.4,30.18,WNW,299,0.0,0.0,79,0.00,,---,0.00,VWS V14.01,2013-04-25 13:06:00,
2013-04-25 09:10:00,75.4,68.4,30.18,WNW,299,0.0,0.0,79,0.00,,---,0.00,VWS V14.01,2013-04-25 13:10:00,
2013-04-25 09:11:00,75.4,68.4,30.18,WNW,299,0.0,0.0,79,0.00,,---,0.00,VWS V14.01,2013-04-25 13:11:00,
2013-04-25 09:15:00,75.7,68.7,30.19,WNW,299,0.0,0.0,79,0.00,,---,0.00,VWS V14.01,2013-04-25 13:15:00,
2013-04-25 09:16:00,75.7,68.7,30.19,WNW,299,0.0,0.0,79,0.00,,---,0.00,VWS V14.01,2013-04-25 13:16:00,
2013-04-25 09:20:00,76.0,68.7,30.19,WNW,299,0.0,0.0,78,0.00,,---,0.00,VWS V14.01,2013-04-25 13:20:00,
2013-04-25 09:21:00,76.1,68.8,30.19,WNW,299,0.0,0.0,78,0.00,,---,0.00,VWS V14.01,2013-04-25 13:21:00,
2013-04-25 09:25:00,76.1,68.4,30.19,WNW,299,0.0,0.0,77,0.00,,---,0.00,VWS V14.01,2013-04-25 13:25:00,
2013-04-25 09:26:00,76.1,68.4,30.19,WNW,299,0.0,0.0,77,0.00,,---,0.00,VWS V14.01,2013-04-25 13:26:00,
2013-04-25 09:30:00,76.2,68.5,30.20,WNW,299,0.0,0.0,77,0.00,,---,0.00,VWS V14.01,2013-04-25 13:30:00,
2013-04-25 09:31:00,76.3,68.6,30.20,WNW,299,0.0,0.0,77,0.00,,---,0.00,VWS V14.01,2013-04-25 13:31:00,
2013-04-25 09:35:00,76.3,68.6,30.20,WNW,299,0.0,0.0,77,0.00,,---,0.00,VWS V14.01,2013-04-25 13:35:00,
2013-04-25 09:36:00,76.3,68.2,30.20,WNW,299,0.0,0.0,76,0.00,,---,0.00,VWS V14.01,2013-04-25 13:36:00,
2013-04-25 09:40:00,76.3,67.8,30.20,WNW,299,0.0,2.0,75,0.00,,---,0.00,VWS V14.01,2013-04-25 13:40:00,
2013-04-25 09:41:00,76.2,67.7,30.20,WNW,299,0.0,0.0,75,0.00,,---,0.00,VWS V14.01,2013-04-25 13:41:00,
2013-04-25 09:45:00,75.9,67.4,30.20,WNW,299,0.0,0.0,75,0.00,,---,0.00,VWS V14.01,2013-04-25 13:45:00,
2013-04-25 09:46:00,75.9,67.4,30.20,WNW,299,0.0,0.0,75,0.00,,---,0.00,VWS V14.01,2013-04-25 13:46:00,
2013-04-25 09:50:00,75.6,67.1,30.20,North,349,0.0,1.0,75,0.00,,---,0.00,VWS V14.01,2013-04-25 13:50:00,
2013-04-25 09:51:00,75.6,67.1,30.20,North,350,2.0,2.0,75,0.00,,---,0.00,VWS V14.01,2013-04-25 13:51:00,
2013-04-25 09:55:00,75.8,67.7,30.20,North,350,0.0,2.0,76,0.00,,---,0.00,VWS V14.01,2013-04-25 13:55:00,
2013-04-25 09:56:00,75.8,67.7,30.20,North,350,0.0,0.0,76,0.00,,---,0.00,VWS V14.01,2013-04-25 13:56:00,
2013-04-25 10:00:00,76.0,67.1,30.20,North,350,0.0,2.0,74,0.00,,---,0.00,VWS V14.01,2013-04-25 14:00:00,
2013-04-25 10:01:00,76.0,67.1,30.20,North,350,0.0,0.0,74,0.00,,---,0.00,VWS V14.01,2013-04-25 14:01:00,
2013-04-25 10:05:00,76.1,67.6,30.20,ENE,75,1.0,2.0,75,0.00,,---,0.00,VWS V14.01,2013-04-25 14:05:00,
2013-04-25 10:06:00,76.1,67.6,30.20,ENE,75,0.0,1.0,75,0.00,,---,0.00,VWS V14.01,2013-04-25 14:06:00,
2013-04-25 10:10:00,76.3,67.8,30.20,ENE,75,1.0,2.0,75,0.00,,---,0.00,VWS V14.01,2013-04-25 14:10:00,
2013-04-25 10:11:00,76.3,67.8,30.20,ENE,75,0.0,1.0,75,0.00,,---,0.00,VWS V14.01,2013-04-25 14:11:00,
2013-04-25 10:15:00,76.3,67.4,30.20,ENE,75,0.0,2.0,74,0.00,,---,0.00,VWS V14.01,2013-04-25 14:15:00,
2013-04-25 10:16:00,76.3,67.4,30.20,ENE,75,0.0,0.0,74,0.00,,---,0.00,VWS V14.01,2013-04-25 14:16:00,
2013-04-25 10:20:00,76.3,67.4,30.20,ENE,75,0.0,2.0,74,0.00,,---,0.00,VWS V14.01,2013-04-25 14:20:00,
2013-04-25 10:21:00,76.3,67.4,30.20,ENE,75,1.0,2.0,74,0.00,,---,0.00,VWS V14.01,2013-04-25 14:21:00,
2013-04-25 10:25:00,76.2,66.5,30.20,ENE,75,0.0,2.0,72,0.00,,---,0.00,VWS V14.01,2013-04-25 14:25:00,
2013-04-25 10:26:00,76.2,66.5,30.20,ENE,75,0.0,0.0,72,0.00,,---,0.00,VWS V14.01,2013-04-25 14:26:00,
2013-04-25 10:30:00,76.2,66.5,30.20,ESE,109,1.0,4.0,72,0.00,,---,0.00,VWS V14.01,2013-04-25 14:30:00,
2013-04-25 10:31:00,76.2,66.5,30.20,ESE,110,2.0,2.0,72,0.00,,---,0.00,VWS V14.01,2013-04-25 14:31:00,
2013-04-25 10:35:00,76.1,66.0,30.20,ESE,114,0.0,0.0,71,0.00,,---,0.00,VWS V14.01,2013-04-25 14:35:00,
2013-04-25 10:40:00,76.3,66.2,30.20,ESE,114,3.0,3.0,71,0.00,,---,0.00,VWS V14.01,2013-04-25 14:40:00,
2013-04-25 10:45:00,76.4,66.3,30.21,ESE,107,4.0,4.0,71,0.00,,---,0.00,VWS V14.01,2013-04-25 14:45:00,
2013-04-25 10:50:00,76.4,66.3,30.21,ESE,107,2.0,2.0,71,0.00,,---,0.00,VWS V14.01,2013-04-25 14:50:00,
2013-04-25 10:55:00,76.2,66.5,30.21,ESE,107,3.0,3.0,72,0.00,,---,0.00,VWS V14.01,2013-04-25 14:55:00,
2013-04-25 11:00:00,76.2,66.5,30.21,ESE,107,1.0,3.0,72,0.00,,---,0.00,VWS V14.01,2013-04-25 15:00:00,
2013-04-25 11:05:00,76.3,66.6,30.21,ESE,107,1.0,2.0,72,0.00,,---,0.00,VWS V14.01,2013-04-25 15:05:00,
2013-04-25 11:10:00,76.3,66.2,30.21,ESE,107,2.0,2.0,71,0.00,,---,0.00,VWS V14.01,2013-04-25 15:10:00,
2013-04-25 11:15:00,76.3,66.2,30.21,ESE,107,0.0,0.0,71,0.00,,---,0.00,VWS V14.01,2013-04-25 15:15:00,
2013-04-25 11:20:00,76.5,66.4,30.21,ESE,107,1.0,2.0,71,0.00,,---,0.00,VWS V14.01,2013-04-25 15:20:00,
2013-04-25 11:25:00,76.5,66.4,30.21,ESE,107,2.0,4.0,71,0.00,,---,0.00,VWS V14.01,2013-04-25 15:25:00,
2013-04-25 11:30:00,76.5,66.4,30.21,ESE,107,2.0,2.0,71,0.00,,---,0.00,VWS V14.01,2013-04-25 15:30:00,
2013-04-25 11:35:00,76.7,66.6,30.21,ESE,107,1.0,3.0,71,0.00,,---,0.00,VWS V14.01,2013-04-25 15:35:00,
2013-04-25 11:40:00,76.8,66.3,30.21,ESE,107,3.0,3.0,70,0.00,,---,0.00,VWS V14.01,2013-04-25 15:40:00,
2013-04-25 11:45:00,76.9,66.4,30.21,ESE,107,2.0,5.0,70,0.00,,---,0.00,VWS V14.01,2013-04-25 15:45:00,
2013-04-25 11:50:00,76.6,66.1,30.21,ESE,107,2.0,3.0,70,0.00,,---,0.00,VWS V14.01,2013-04-25 15:50:00,
2013-04-25 11:55:00,76.6,66.1,30.21,ESE,107,2.0,2.0,70,0.00,,---,0.00,VWS V14.01,2013-04-25 15:55:00,
2013-04-25 12:00:00,76.7,67.0,30.21,ESE,105,2.0,3.0,72,0.00,,---,0.00,VWS V14.01,2013-04-25 16:00:00,
2013-04-25 12:05:00,76.5,66.4,30.21,SE,133,3.0,3.0,71,0.00,,---,0.00,VWS V14.01,2013-04-25 16:05:00,
2013-04-25 12:10:00,76.5,66.0,30.21,ESE,123,4.0,5.0,70,0.00,,---,0.00,VWS V14.01,2013-04-25 16:10:00,
2013-04-25 12:15:00,76.7,66.2,30.21,East,100,1.0,2.0,70,0.00,,---,0.00,VWS V14.01,2013-04-25 16:15:00,
2013-04-25 12:20:00,76.9,66.4,30.21,SE,137,4.0,5.0,70,0.00,,---,0.00,VWS V14.01,2013-04-25 16:20:00,
2013-04-25 12:25:00,76.9,66.0,30.21,SE,133,3.0,4.0,69,0.00,,---,0.00,VWS V14.01,2013-04-25 16:25:00,
2013-04-25 12:30:00,77.0,66.1,30.21,SE,129,3.0,4.0,69,0.00,,---,0.00,VWS V14.01,2013-04-25 16:30:00,
2013-04-25 12:35:00,77.1,66.6,30.21,ESE,120,3.0,3.0,70,0.00,,---,0.00,VWS V14.01,2013-04-25 16:35:00,
2013-04-25 12:40:00,77.0,66.5,30.21,ESE,120,5.0,5.0,70,0.00,,---,0.00,VWS V14.01,2013-04-25 16:40:00,
2013-04-25 12:45:00,76.9,66.0,30.20,ESE,123,3.0,3.0,69,0.00,,---,0.00,VWS V14.01,2013-04-25 16:45:00,
2013-04-25 12:50:00,76.8,66.3,30.20,SE,128,4.0,7.0,70,0.00,,---,0.00,VWS V14.01,2013-04-25 16:50:00,
2013-04-25 12:55:00,76.9,66.4,30.20,ESE,122,5.0,6.0,70,0.00,,---,0.00,VWS V14.01,2013-04-25 16:55:00,
2013-04-25 13:00:00,77.3,66.3,30.20,ESE,112,2.0,2.0,69,0.00,,---,0.00,VWS V14.01,2013-04-25 17:00:00,
2013-04-25 13:05:00,77.6,67.1,30.20,East,96,3.0,4.0,70,0.00,,---,0.00,VWS V14.01,2013-04-25 17:05:00,
2013-04-25 13:10:00,77.6,66.6,30.20,ESE,108,4.0,4.0,69,0.00,,---,0.00,VWS V14.01,2013-04-25 17:10:00,
2013-04-25 13:15:00,77.6,67.1,30.20,ESE,114,3.0,5.0,70,0.00,,---,0.00,VWS V14.01,2013-04-25 17:15:00,
2013-04-25 13:20:00,77.7,67.1,30.20,ESE,103,3.0,4.0,70,0.00,,---,0.00,VWS V14.01,2013-04-25 17:20:00,
2013-04-25 13:25:00,77.6,67.1,30.20,ESE,109,2.0,2.0,70,0.00,,---,0.00,VWS V14.01,2013-04-25 17:25:00,
2013-04-25 13:30:00,78.0,67.8,30.20,East,79,4.0,5.0,71,0.00,,---,0.00,VWS V14.01,2013-04-25 17:30:00,
2013-04-25 13:35:00,78.0,67.0,30.20,ENE,77,4.0,4.0,69,0.00,,---,0.00,VWS V14.01,2013-04-25 17:35:00,
2013-04-25 13:40:00,78.0,67.0,30.20,East,96,4.0,5.0,69,0.00,,---,0.00,VWS V14.01,2013-04-25 17:40:00,
2013-04-25 13:45:00,78.1,67.1,30.20,East,83,3.0,4.0,69,0.00,,---,0.00,VWS V14.01,2013-04-25 17:45:00,
2013-04-25 13:50:00,77.9,66.5,30.20,East,83,3.0,3.0,68,0.00,,---,0.00,VWS V14.01,2013-04-25 17:50:00,
2013-04-25 13:55:00,78.0,66.6,30.20,East,101,4.0,4.0,68,0.00,,---,0.00,VWS V14.01,2013-04-25 17:55:00,
2013-04-25 14:00:00,78.0,67.0,30.20,East,97,3.0,5.0,69,0.00,,---,0.00,VWS V14.01,2013-04-25 18:00:00,
2013-04-25 14:05:00,78.2,67.6,30.20,East,94,3.0,4.0,70,0.00,,---,0.00,VWS V14.01,2013-04-25 18:05:00,
2013-04-25 14:10:00,78.1,67.9,30.20,East,91,4.0,4.0,71,0.00,,---,0.00,VWS V14.01,2013-04-25 18:10:00,
2013-04-25 14:15:00,78.0,67.4,30.20,East,89,5.0,6.0,70,0.00,,---,0.00,VWS V14.01,2013-04-25 18:15:00,
2013-04-25 14:20:00,77.8,67.7,30.20,East,94,4.0,5.0,71,0.00,,---,0.00,VWS V14.01,2013-04-25 18:20:00,
2013-04-25 14:25:00,77.7,68.0,30.20,East,89,5.0,7.0,72,0.00,,---,0.00,VWS V14.01,2013-04-25 18:25:00,
2013-04-25 14:30:00,77.7,68.8,30.19,East,87,4.0,7.0,74,0.00,,---,0.00,VWS V14.01,2013-04-25 18:30:00,
2013-04-25 14:35:00,77.5,67.8,30.19,ESE,122,5.0,5.0,72,0.00,,---,0.00,VWS V14.01,2013-04-25 18:35:00,
2013-04-25 14:40:00,77.5,67.8,30.19,East,100,2.0,4.0,72,0.00,,---,0.00,VWS V14.01,2013-04-25 18:40:00,
2013-04-25 14:45:00,77.4,67.7,30.19,ESE,112,7.0,10.0,72,0.00,,---,0.00,VWS V14.01,2013-04-25 18:45:00,
2013-04-25 14:50:00,77.5,68.6,30.19,East,94,4.0,4.0,74,0.00,,---,0.00,VWS V14.01,2013-04-25 18:50:00,
2013-04-25 14:55:00,77.8,68.9,30.19,East,79,4.0,4.0,74,0.00,,---,0.00,VWS V14.01,2013-04-25 18:55:00,
2013-04-25 15:00:00,77.6,68.3,30.18,ESE,114,6.0,10.0,73,0.00,,---,0.00,VWS V14.01,2013-04-25 19:00:00,
2013-04-25 15:05:00,77.6,68.7,30.18,East,101,3.0,5.0,74,0.00,,---,0.00,VWS V14.01,2013-04-25 19:05:00,
2013-04-25 15:10:00,77.6,68.3,30.18,ESE,106,3.0,5.0,73,0.00,,---,0.00,VWS V14.01,2013-04-25 19:10:00,
2013-04-25 15:15:00,77.8,68.5,30.18,East,96,6.0,6.0,73,0.00,,---,0.00,VWS V14.01,2013-04-25 19:15:00,
2013-04-25 15:20:00,77.9,69.3,30.18,East,87,5.0,5.0,75,0.00,,---,0.00,VWS V14.01,2013-04-25 19:20:00,
2013-04-25 15:25:00,77.8,68.5,30.18,East,79,6.0,7.0,73,0.00,,---,0.00,VWS V14.01,2013-04-25 19:25:00,
2013-04-25 15:30:00,77.7,67.6,30.18,East,93,6.0,6.0,71,0.00,,---,0.00,VWS V14.01,2013-04-25 19:30:00,
2013-04-25 15:35:00,77.9,68.2,30.18,East,83,5.0,5.0,72,0.00,,---,0.00,VWS V14.01,2013-04-25 19:35:00,
2013-04-25 15:40:00,77.8,68.1,30.18,ESE,103,5.0,5.0,72,0.00,,---,0.00,VWS V14.01,2013-04-25 19:40:00,
2013-04-25 15:45:00,78.0,68.7,30.17,East,81,4.0,5.0,73,0.00,,---,0.00,VWS V14.01,2013-04-25 19:45:00,
2013-04-25 15:50:00,78.0,68.7,30.17,East,79,5.0,5.0,73,0.00,,---,0.00,VWS V14.01,2013-04-25 19:50:00,
2013-04-25 15:55:00,78.0,67.0,30.17,ENE,77,5.0,5.0,69,0.00,,---,0.00,VWS V14.01,2013-04-25 19:55:00,
2013-04-25 16:00:00,78.0,67.0,30.17,East,81,4.0,5.0,69,0.00,,---,0.00,VWS V14.01,2013-04-25 20:00:00,
2013-04-25 16:05:00,78.2,67.6,30.17,East,89,6.0,6.0,70,0.00,,---,0.00,VWS V14.01,2013-04-25 20:05:00,
2013-04-25 16:10:00,78.1,67.1,30.17,East,80,6.0,7.0,69,0.00,,---,0.00,VWS V14.01,2013-04-25 20:10:00,
2013-04-25 16:15:00,78.0,67.4,30.17,East,89,6.0,6.0,70,0.00,,---,0.00,VWS V14.01,2013-04-25 20:15:00,
2013-04-25 16:20:00,77.9,66.9,30.17,East,79,4.0,5.0,69,0.00,,---,0.00,VWS V14.01,2013-04-25 20:20:00,
2013-04-25 16:25:00,77.9,66.9,30.17,East,100,9.0,10.0,69,0.00,,---,0.00,VWS V14.01,2013-04-25 20:25:00,
2013-04-25 16:30:00,77.9,67.3,30.16,ESE,102,5.0,5.0,70,0.00,,---,0.00,VWS V14.01,2013-04-25 20:30:00,
2013-04-25 16:35:00,78.0,67.4,30.16,East,85,6.0,7.0,70,0.00,,---,0.00,VWS V14.01,2013-04-25 20:35:00,
2013-04-25 16:40:00,77.8,67.2,30.16,East,87,5.0,5.0,70,0.00,,---,0.00,VWS V14.01,2013-04-25 20:40:00,
2013-04-25 16:45:00,77.8,66.8,30.16,East,83,7.0,7.0,69,0.00,,---,0.00,VWS V14.01,2013-04-25 20:45:00,
2013-04-25 16:50:00,77.8,67.2,30.16,East,81,6.0,12.0,70,0.00,,---,0.00,VWS V14.01,2013-04-25 20:50:00,
2013-04-25 16:55:00,77.9,67.8,30.16,ESE,104,6.0,10.0,71,0.00,,---,0.00,VWS V14.01,2013-04-25 20:55:00,
2013-04-25 17:00:00,77.9,66.9,30.15,East,88,6.0,11.0,69,0.00,,---,0.00,VWS V14.01,2013-04-25 21:00:00,
2013-04-25 17:05:00,77.9,66.5,30.15,ENE,77,6.0,11.0,68,0.00,,---,0.00,VWS V14.01,2013-04-25 21:05:00,
2013-04-25 17:10:00,77.9,66.1,30.15,ESE,116,6.0,10.0,67,0.00,,---,0.00,VWS V14.01,2013-04-25 21:10:00,
2013-04-25 17:15:00,78.0,67.0,30.15,East,81,7.0,9.0,69,0.00,,---,0.00,VWS V14.01,2013-04-25 21:15:00,
2013-04-25 17:20:00,77.9,66.5,30.15,East,85,6.0,10.0,68,0.00,,---,0.00,VWS V14.01,2013-04-25 21:20:00,
2013-04-25 17:25:00,77.8,66.8,30.15,East,83,5.0,11.0,69,0.00,,---,0.00,VWS V14.01,2013-04-25 21:25:00,
2013-04-25 17:38:00,77.6,67.1,30.16,East,90,6.0,12.0,70,0.00,,---,0.00,VWS V14.01,2013-04-25 21:38:00,
2013-04-25 17:43:00,77.4,67.3,30.16,East,94,10.0,10.0,71,0.00,,---,0.00,VWS V14.01,2013-04-25 21:43:00,
2013-04-25 17:48:00,77.4,67.7,30.16,East,79,10.0,12.0,72,0.00,,---,0.00,VWS V14.01,2013-04-25 21:48:00,
2013-04-25 17:53:00,77.3,67.2,30.16,ESE,105,4.0,11.0,71,0.00,,---,0.00,VWS V14.01,2013-04-25 21:53:00,
2013-04-25 17:58:00,77.3,68.0,30.16,ESE,116,10.0,11.0,73,0.00,,---,0.00,VWS V14.01,2013-04-25 21:58:00,
2013-04-25 18:03:00,77.2,68.3,30.16,East,98,4.0,11.0,74,0.00,,---,0.00,VWS V14.01,2013-04-25 22:03:00,
2013-04-25 18:08:00,77.1,67.8,30.16,SE,127,6.0,10.0,73,0.00,,---,0.00,VWS V14.01,2013-04-25 22:08:00,
2013-04-25 18:13:00,77.0,67.7,30.16,ESE,116,5.0,8.0,73,0.00,,---,0.00,VWS V14.01,2013-04-25 22:13:00,
2013-04-25 18:18:00,77.0,67.3,30.16,ESE,103,5.0,10.0,72,0.00,,---,0.00,VWS V14.01,2013-04-25 22:18:00,
2013-04-25 18:23:00,77.3,68.0,30.16,ESE,113,9.0,10.0,73,0.00,,---,0.00,VWS V14.01,2013-04-25 22:23:00,
2013-04-25 18:28:00,77.2,67.9,30.16,ESE,113,4.0,9.0,73,0.00,,---,0.00,VWS V14.01,2013-04-25 22:28:00,
2013-04-25 18:33:00,77.3,68.0,30.16,SE,126,6.0,11.0,73,0.00,,---,0.00,VWS V14.01,2013-04-25 22:33:00,
2013-04-25 18:38:00,77.3,68.4,30.16,ESE,112,5.0,11.0,74,0.00,,---,0.00,VWS V14.01,2013-04-25 22:38:00,
2013-04-25 18:43:00,77.1,67.4,30.16,ESE,119,4.0,11.0,72,0.00,,---,0.00,VWS V14.01,2013-04-25 22:43:00,
2013-04-25 18:48:00,77.3,67.6,30.16,SE,132,11.0,12.0,72,0.00,,---,0.00,VWS V14.01,2013-04-25 22:48:00,
2013-04-25 18:53:00,77.3,67.6,30.16,SE,127,8.0,12.0,72,0.00,,---,0.00,VWS V14.01,2013-04-25 22:53:00,
2013-04-25 18:58:00,77.2,67.5,30.16,ESE,103,9.0,13.0,72,0.00,,---,0.00,VWS V14.01,2013-04-25 22:58:00,
2013-04-25 19:03:00,77.2,67.1,30.16,ESE,123,8.0,14.0,71,0.00,,---,0.00,VWS V14.01,2013-04-25 23:03:00,
2013-04-25 19:08:00,77.2,66.7,30.16,ESE,108,6.0,11.0,70,0.00,,---,0.00,VWS V14.01,2013-04-25 23:08:00,
2013-04-25 19:13:00,77.1,66.6,30.16,SE,124,7.0,12.0,70,0.00,,---,0.00,VWS V14.01,2013-04-25 23:13:00,
2013-04-25 19:18:00,77.1,66.2,30.16,ESE,120,10.0,12.0,69,0.00,,---,0.00,VWS V14.01,2013-04-25 23:18:00,
2013-04-25 19:23:00,77.0,66.9,30.16,ESE,116,7.0,12.0,71,0.00,,---,0.00,VWS V14.01,2013-04-25 23:23:00,
2013-04-25 19:28:00,76.8,66.7,30.16,ESE,102,5.0,10.0,71,0.00,,---,0.00,VWS V14.01,2013-04-25 23:28:00,
2013-04-25 19:33:00,76.8,66.7,30.16,SE,125,7.0,11.0,71,0.00,,---,0.00,VWS V14.01,2013-04-25 23:33:00,
2013-04-25 19:38:00,76.7,67.0,30.16,ESE,115,8.0,11.0,72,0.00,,---,0.00,VWS V14.01,2013-04-25 23:38:00,
2013-04-25 19:43:00,76.6,66.9,30.16,ESE,115,4.0,10.0,72,0.00,,---,0.00,VWS V14.01,2013-04-25 23:43:00,
2013-04-25 19:48:00,76.5,66.8,30.16,ESE,107,5.0,11.0,72,0.00,,---,0.00,VWS V14.01,2013-04-25 23:48:00,
2013-04-25 19:53:00,76.5,67.6,30.16,SE,126,5.0,10.0,74,0.00,,---,0.00,VWS V14.01,2013-04-25 23:53:00,
2013-04-25 19:58:00,76.4,67.5,30.16,ESE,115,4.0,9.0,74,0.00,,---,0.00,VWS V14.01,2013-04-25 23:58:00,
2013-04-25 20:03:00,76.4,67.5,30.17,East,100,4.0,11.0,74,0.00,,---,0.00,VWS V14.01,2013-04-26 00:03:00,
2013-04-25 20:08:00,76.4,67.5,30.17,East,98,6.0,9.0,74,0.00,,---,0.00,VWS V14.01,2013-04-26 00:08:00,
2013-04-25 20:13:00,76.5,68.0,30.17,SE,124,5.0,9.0,75,0.00,,---,0.00,VWS V14.01,2013-04-26 00:13:00,
2013-04-25 20:18:00,76.3,67.8,30.17,ESE,112,6.0,11.0,75,0.00,,---,0.00,VWS V14.01,2013-04-26 00:18:00,
2013-04-25 20:23:00,76.2,67.3,30.17,East,89,5.0,11.0,74,0.00,,---,0.00,VWS V14.01,2013-04-26 00:23:00,
2013-04-25 20:28:00,76.1,67.6,30.17,ESE,119,6.0,12.0,75,0.00,,---,0.00,VWS V14.01,2013-04-26 00:28:00,
2013-04-25 20:33:00,76.2,67.7,30.17,ESE,114,5.0,10.0,75,0.00,,---,0.00,VWS V14.01,2013-04-26 00:33:00,
2013-04-25 20:38:00,76.2,68.1,30.17,ESE,119,5.0,10.0,76,0.00,,---,0.00,VWS V14.01,2013-04-26 00:38:00,
2013-04-25 20:43:00,76.0,67.5,30.17,ESE,106,9.0,12.0,75,0.00,,---,0.00,VWS V14.01,2013-04-26 00:43:00,
2013-04-25 20:48:00,76.1,68.0,30.18,ESE,121,6.0,12.0,76,0.00,,---,0.00,VWS V14.01,2013-04-26 00:48:00,
2013-04-25 20:53:00,76.2,68.1,30.18,East,100,5.0,11.0,76,0.00,,---,0.00,VWS V14.01,2013-04-26 00:53:00,
2013-04-25 20:58:00,75.9,67.8,30.18,SE,124,4.0,11.0,76,0.00,,---,0.00,VWS V14.01,2013-04-26 00:58:00,
2013-04-25 21:03:00,75.9,67.8,30.18,ESE,123,6.0,10.0,76,0.00,,---,0.00,VWS V14.01,2013-04-26 01:03:00,
2013-04-25 21:08:00,75.9,68.2,30.18,ESE,121,10.0,11.0,77,0.00,,---,0.00,VWS V14.01,2013-04-26 01:08:00,
2013-04-25 21:13:00,75.9,68.2,30.18,SE,133,5.0,12.0,77,0.00,,---,0.00,VWS V14.01,2013-04-26 01:13:00,
2013-04-25 21:18:00,76.0,68.7,30.18,SE,127,5.0,10.0,78,0.00,,---,0.00,VWS V14.01,2013-04-26 01:18:00,
2013-04-25 21:23:00,75.8,68.5,30.18,SE,139,6.0,12.0,78,0.00,,---,0.00,VWS V14.01,2013-04-26 01:23:00,
2013-04-25 21:28:00,75.7,68.4,30.18,SE,129,5.0,10.0,78,0.00,,---,0.00,VWS V14.01,2013-04-26 01:28:00,
2013-04-25 21:33:00,75.7,68.4,30.19,SE,137,5.0,8.0,78,0.00,,---,0.00,VWS V14.01,2013-04-26 01:33:00,
2013-04-25 21:38:00,75.6,68.6,30.19,ESE,109,7.0,11.0,79,0.00,,---,0.00,VWS V14.01,2013-04-26 01:38:00,
2013-04-25 21:43:00,75.5,68.2,30.19,ESE,117,6.0,11.0,78,0.00,,---,0.00,VWS V14.01,2013-04-26 01:43:00,
2013-04-25 21:48:00,75.5,68.5,30.20,ESE,120,6.0,10.0,79,0.00,,---,0.00,VWS V14.01,2013-04-26 01:48:00,
2013-04-25 21:53:00,75.5,68.5,30.20,SE,129,6.0,9.0,79,0.00,,---,0.00,VWS V14.01,2013-04-26 01:53:00,
2013-04-25 21:58:00,75.6,69.0,30.20,SE,137,6.0,10.0,80,0.00,,---,0.00,VWS V14.01,2013-04-26 01:58:00,
2013-04-25 22:03:00,75.5,68.9,30.20,ESE,113,9.0,10.0,80,0.00,,---,0.00,VWS V14.01,2013-04-26 02:03:00,
2013-04-25 22:08:00,75.4,68.8,30.20,SE,134,5.0,9.0,80,0.00,,---,0.00,VWS V14.01,2013-04-26 02:08:00,
2013-04-25 22:13:00,75.4,68.8,30.20,ESE,112,5.0,8.0,80,0.00,,---,0.00,VWS V14.01,2013-04-26 02:13:00,
2013-04-25 22:18:00,75.4,69.2,30.21,SE,143,3.0,9.0,81,0.00,,---,0.00,VWS V14.01,2013-04-26 02:18:00,
2013-04-25 22:23:00,75.2,68.6,30.21,SE,143,5.0,10.0,80,0.00,,---,0.00,VWS V14.01,2013-04-26 02:23:00,
2013-04-25 22:28:00,75.3,69.1,30.21,SE,138,5.0,9.0,81,0.00,,---,0.00,VWS V14.01,2013-04-26 02:28:00,
2013-04-25 22:33:00,75.1,68.5,30.21,SE,126,5.0,9.0,80,0.00,,---,0.00,VWS V14.01,2013-04-26 02:33:00,
2013-04-25 22:38:00,75.3,69.1,30.21,ESE,123,9.0,9.0,81,0.00,,---,0.00,VWS V14.01,2013-04-26 02:38:00,
2013-04-25 22:43:00,75.1,68.5,30.21,ESE,122,6.0,10.0,80,0.00,,---,0.00,VWS V14.01,2013-04-26 02:43:00,
2013-04-25 22:48:00,75.1,68.9,30.20,SSE,153,6.0,10.0,81,0.00,,---,0.00,VWS V14.01,2013-04-26 02:48:00,
2013-04-25 22:53:00,75.1,68.9,30.20,ESE,114,6.0,10.0,81,0.00,,---,0.00,VWS V14.01,2013-04-26 02:53:00,
2013-04-25 22:58:00,75.1,69.2,30.20,ESE,102,6.0,10.0,82,0.00,,---,0.00,VWS V14.01,2013-04-26 02:58:00,
2013-04-25 23:03:00,75.0,68.8,30.21,SE,125,7.0,11.0,81,0.00,,---,0.00,VWS V14.01,2013-04-26 03:03:00,
2013-04-25 23:08:00,75.1,69.2,30.21,ESE,116,5.0,7.0,82,0.00,,---,0.00,VWS V14.01,2013-04-26 03:08:00,
2013-04-25 23:13:00,75.1,69.2,30.21,SE,130,4.0,10.0,82,0.00,,---,0.00,VWS V14.01,2013-04-26 03:13:00,
2013-04-25 23:18:00,75.1,69.2,30.21,SE,124,5.0,6.0,82,0.00,,---,0.00,VWS V14.01,2013-04-26 03:18:00,
2013-04-25 23:23:00,75.0,69.1,30.21,ESE,123,4.0,8.0,82,0.00,,---,0.00,VWS V14.01,2013-04-26 03:23:00,
2013-04-25 23:28:00,75.0,69.5,30.21,SE,131,3.0,6.0,83,0.00,,---,0.00,VWS V14.01,2013-04-26 03:28:00,
2013-04-25 23:33:00,74.9,69.0,30.21,SE,129,4.0,7.0,82,0.00,,---,0.00,VWS V14.01,2013-04-26 03:33:00,
2013-04-25 23:38:00,74.9,69.0,30.21,SE,129,5.0,7.0,82,0.00,,---,0.00,VWS V14.01,2013-04-26 03:38:00,
2013-04-25 23:43:00,74.9,69.4,30.21,SE,127,5.0,6.0,83,0.00,,---,0.00,VWS V14.01,2013-04-26 03:43:00,
2013-04-25 23:48:00,74.9,69.4,30.21,SE,125,3.0,5.0,83,0.00,,---,0.00,VWS V14.01,2013-04-26 03:48:00,
2013-04-25 23:53:00,74.9,69.4,30.21,SE,126,3.0,5.0,83,0.00,,---,0.00,VWS V14.01,2013-04-26 03:53:00,
2013-04-25 23:58:00,74.9,69.4,30.21,SE,131,3.0,4.0,83,0.00,,---,0.00,VWS V14.01,2013-04-26 03:58:00,